George/Botha, South Africa

9:20 AM SAST on December 03, 2016 (GMT +0200)
George

Weather History for FAGG - January, 2013

Change the Weather History Date:

Tuesday, January 29, 2013

  Actual Average Record
Temperature  
Mean Temperature 68 °F -  
Max Temperature 77 °F 75 °F 85 °F (2015)
Min Temperature 58 °F 59 °F 57 °F (2015)
Cooling Degree Days 2    
Growing Degree Days 18 (Base 50)    
Moisture  
Dew Point 60 °F    
Average Humidity 75    
Maximum Humidity 94    
Minimum Humidity 41    
Precipitation  
Precipitation 0.20 in - - ()
Sea Level Pressure  
Sea Level Pressure 29.95 in    
Wind  
Wind Speed 8 mph ()    
Max Wind Speed 23 mph    
Max Gust Speed -    
Visibility 7.3 miles    
Events Rain    
Averages and records for this station are not official NWS values.
T = Trace of Precipitation, MM = Missing Value Source: Averaged Metar Reports

Daily Weather History Graph

Daily Weather History Graph

Search for Another Location

Airport or City:

Trip Planner

Search our weather history database for the weather conditions in past years. The results will help you decide how hot, cold, wet, or windy it might be!

Date:

Astronomy

Jan. 29, 2013 Rise Set
Actual Time 5:48 AM SAST 7:37 PM SAST
Civil Twilight 5:21 AM SAST 8:05 PM SAST
Nautical Twilight 4:48 AM SAST 8:38 PM SAST
Astronomical Twilight 4:13 AM SAST 9:13 PM SAST
Moon 8:43 PM SAST (1/29) 7:54 AM SAST (1/29)
Length of Visible Light 14h 43m
Length of Day
13h 48m
Waning Gibbous, 95% of the Moon is Illuminated
Jan 29
Waning Gibbous
Feb 3
Last Quarter
Feb 10
New
Feb 17
First Quarter
Feb 25
Full

Hourly Weather History & Observations

Time (SAST) Temp. Dew Point Humidity Pressure Visibility Wind Dir Wind Speed Gust Speed Precip Events Conditions
12:00 AM 62.6 °F 59.0 °F 88% 30.09 in 5.6 mi East 4.6 mph - N/A   Unknown
1:00 AM 60.8 °F 57.2 °F 88% 30.09 in 5.0 mi East 5.8 mph - N/A   Unknown
2:00 AM 61 °F 57 °F 84% 30.07 in 6 mi East 6.9 mph - -  
2:00 AM 60.8 °F 57.2 °F 88% 30.06 in 5.6 mi East 6.9 mph - N/A   Partly Cloudy
3:00 AM 60.8 °F 57.2 °F 88% 30.04 in - East 8.1 mph - N/A   Clear
4:00 AM 60.8 °F 55.4 °F 82% 30.04 in - East 10.4 mph - N/A   Clear
5:00 AM 60 °F 56 °F 81% 30.01 in 12 mi East 9.2 mph - -  
5:00 AM 60.8 °F 55.4 °F 82% 30.01 in - East 8.1 mph - N/A   Clear
6:00 AM 59.0 °F 55.4 °F 88% 30.01 in - East 5.8 mph - N/A   Clear
7:00 AM 62.6 °F 55.4 °F 77% 29.98 in - East 3.5 mph - N/A   Clear
8:00 AM 67 °F 57 °F 62% 29.99 in 12 mi ESE 10.4 mph - -  
8:00 AM 68.0 °F 57.2 °F 68% 29.98 in - ESE 10.4 mph - N/A   Clear
9:00 AM 71.6 °F 59.0 °F 64% 29.98 in 6.2 mi East 10.4 mph - N/A   Partly Cloudy
10:00 AM 71.6 °F 59.0 °F 64% 29.95 in 6.2 mi ESE 8.1 mph - N/A   Partly Cloudy
11:00 AM 74 °F 59 °F 50% 29.96 in 12 mi ESE 8.1 mph - -   Scattered Clouds
11:00 AM 73.4 °F 60.8 °F 65% 29.95 in 6.2 mi Variable 6.9 mph - N/A   Partly Cloudy
12:00 PM 75.2 °F 60.8 °F 61% 29.92 in 6.2 mi SE 6.9 mph - N/A   Partly Cloudy
1:00 PM 77.0 °F 62.6 °F 61% 29.92 in - ESE 11.5 mph - N/A   Clear
2:00 PM 77 °F 65 °F 57% 29.91 in 12 mi ESE 15.0 mph - -   Scattered Clouds
2:00 PM 77.0 °F 64.4 °F 65% 29.89 in 6.2 mi ESE 12.7 mph - N/A   Partly Cloudy
3:00 PM 77.0 °F 64.4 °F 65% 29.89 in 6.2 mi ESE 15.0 mph - N/A   Partly Cloudy
4:00 PM 75.2 °F 64.4 °F 69% 29.83 in 6.2 mi ESE 18.4 mph - N/A   Partly Cloudy
5:00 PM 72 °F 53 °F 41% 29.85 in 12 mi ESE 21.9 mph - -   Partly Cloudy
5:00 PM 73.4 °F 66.2 °F 78% 29.83 in 6.2 mi ESE 23.0 mph - N/A   Scattered Clouds
6:00 PM 71.6 °F 64.4 °F 78% 29.83 in 6.2 mi ESE 18.4 mph - N/A   Scattered Clouds
7:00 PM 69.8 °F 64.4 °F 83% 29.83 in 6.2 mi ESE 16.1 mph - N/A   Scattered Clouds
8:00 PM 69 °F 65 °F 84% 29.87 in 12 mi ESE 12.7 mph - -   Mostly Cloudy
8:00 PM 69.8 °F 64.4 °F 83% 29.86 in 6.2 mi ESE 11.5 mph - N/A   Mostly Cloudy
9:00 PM 68.0 °F 66.2 °F 94% 29.86 in 4.3 mi East 10.4 mph - N/A   Overcast
10:00 PM 69.8 °F 66.2 °F 88% 29.95 in 3.7 mi WNW 6.9 mph - N/A Rain Light Rain
11:00 PM 68.0 °F 66.2 °F 94% 29.92 in 3.7 mi ENE 8.1 mph - N/A Rain Light Rain